Location: Audinghen
(50.8518°N, 1.6129°E)
Time: 09:47:00
(UTC+00:00)

USA 267 - Pass Details

Date: 07 August 2020
Orbit: 1102 x 1106 km, 123.0° (Epoch: 18 September)

Event Time Altitude Azimuth Distance (km) Brightness Sun altitude
Rises 02:13:37 0° 119° (ESE) 3,913 6.2 -16.7°
Reaches altitude 10° 02:16:06 10° 120° (ESE) 2,957 5.6 -16.5°
Maximum altitude 02:22:39 87° 210° (SSW) 1,110 3.2 -15.9°
Drops below altitude 10° 02:29:14 10° 301° (WNW) 2,968 5.5 -15.2°
Sets 02:31:43 0° 301° (WNW) 3,929 6.1 -15.0°
